Flag for United Kingdom Weather past 2 weeks in Liverpool, England, United Kingdom

Now
50 °F

Clear.


Feels Like: 46 °F
Forecast: 51 / 55 °F
Wind: 9 mph from Northwest

Location: Liverpool Airport

Current Time: May 23, 2015 at 3:58:15 AM

Latest Report: May 23, 2015 at 3:20 AM


Visibility: 10 mi

Pressure: 30.30 "Hg

Humidity: 88%

Dew point: 46 °F

Location of LiverpoolLocation

Historic Weather in Liverpool — Graph

°F

Liverpool temperature yesterday

Maximum temperature yesterday: 63 °F (at 2:20 PM)
Minimum temperature yesterday: 52 °F (at 4:50 AM)
Average temperature yesterday: 56 °F

Past Weeks' High & Low Weather Summary

 TemperatureHumidityPressure
High63 °F (May 11, 12:50 PM)100% (May 8, 4:20 PM)30.30 "Hg (May 8, 4:20 PM)
Low41 °F (May 15, 5:20 AM)42% (May 13, 3:20 PM)29.47 "Hg (May 18, 11:50 PM)
Average53 °F77%30.01 "Hg
* Reported May 8 3:20 AM — May 23 2:20 AM, Liverpool, Weather by CustomWeather, © 2015

Note: Actual official high and low records may vary slightly from our data, if they occured in-between our weather recording intervals... More about our weather records

Advertising

Liverpool weather history for previous 24 hours

 ConditionsComfort  
Time TempWeatherWind HumidityBarometerVisibility
2:20 AM
Sat, May 23
50 °FClear.9 mph88%30.30 "Hg10 mi
1:50 AM50 °FPassing clouds.7 mph88%30.30 "HgN/A
1:20 AM50 °FClear.13 mph94%30.30 "Hg10 mi
12:50 AM52 °FClear.10 mph82%30.30 "Hg10 mi
12:20 AM52 °FPassing clouds.14 mph82%30.30 "HgN/A
11:50 PM
Fri, May 22
54 °FPassing clouds.10 mph72%30.30 "HgN/A
11:20 PM54 °FPassing clouds.8 mph77%30.30 "HgN/A
10:50 PM54 °FPassing clouds.8 mph82%30.30 "HgN/A
10:20 PM54 °FPassing clouds.7 mph88%30.30 "HgN/A
9:50 PM55 °FPartly sunny.9 mph88%30.27 "HgN/A
9:20 PM55 °FPartly sunny.10 mph88%30.27 "HgN/A
8:50 PM55 °FPartly sunny.9 mph94%30.27 "HgN/A
8:20 PM55 °FPartly sunny.9 mph94%30.27 "HgN/A
7:50 PM55 °FPartly sunny.13 mph94%30.27 "HgN/A
7:20 PM57 °FLight rain. Partly sunny.13 mph94%30.24 "Hg6 mi
6:50 PM57 °FScattered showers. Partly sunny.14 mph94%30.24 "HgN/A
6:20 PM59 °FPartly sunny.15 mph88%30.24 "HgN/A
5:50 PM57 °FPartly sunny.15 mph88%30.24 "HgN/A
5:20 PM59 °FBroken clouds.14 mph88%30.24 "HgN/A
4:50 PM59 °FPartly sunny.16 mph88%30.24 "HgN/A
4:20 PM59 °FPartly sunny.15 mph88%30.24 "HgN/A
3:50 PM59 °FScattered showers. Partly sunny.17 mph88%30.24 "HgN/A
3:20 PM59 °FPartly sunny.15 mph88%30.24 "HgN/A
2:50 PM63 °FPartly sunny.18 mph77%30.24 "HgN/A
2:20 PM63 °FScattered clouds.17 mph77%30.24 "HgN/A
1:50 PM61 °FScattered clouds.15 mph83%30.24 "HgN/A
1:20 PM59 °FPartly sunny.15 mph82%30.24 "HgN/A
12:50 PM61 °FPartly sunny.14 mph83%30.24 "HgN/A
12:20 PM59 °FPartly sunny.14 mph82%30.24 "HgN/A
11:50 AM59 °FBroken clouds.13 mph88%30.24 "HgN/A
11:20 AM59 °FBroken clouds.12 mph88%30.24 "HgN/A
10:50 AM59 °FBroken clouds.10 mph88%30.24 "HgN/A
10:20 AM57 °FPartly sunny.12 mph88%30.27 "HgN/A
9:50 AM57 °FPartly sunny.10 mph94%30.24 "HgN/A
9:20 AM55 °FPartly sunny.5 mph88%30.24 "HgN/A
8:50 AM57 °FPartly sunny.3 mph88%30.24 "HgN/A
8:20 AM57 °FPartly sunny.3 mph82%30.24 "HgN/A
7:50 AM55 °FPartly sunny.5 mph88%30.24 "HgN/A
7:20 AM54 °FPartly sunny.3 mph94%30.24 "HgN/A
6:50 AM54 °FPartly sunny.3 mph94%30.24 "HgN/A
6:20 AM54 °FOvercast.2 mph88%30.24 "HgN/A
5:50 AM54 °FOvercast.5 mph88%30.24 "HgN/A
5:20 AM52 °FPassing clouds.3 mph94%30.24 "HgN/A
4:50 AM52 °FPassing clouds.3 mph88%30.24 "HgN/A
4:20 AM54 °FPassing clouds.5 mph88%30.24 "HgN/A
3:50 AM54 °FPassing clouds.7 mph82%30.24 "HgN/A
3:20 AM54 °FPassing clouds.5 mph88%30.27 "HgN/A
Weather by CustomWeather, © 2015

See weather overviewHow to use our weather pages